Terminal Aerodrome Forecast
Issued by NWS Sioux Falls, SD

Home | Current Version | Previous Version | Graphics & Text | Print | Product List | Glossary On
Versions: 1 2 3 4 5 6 7 8 9 10 11 12 13 14 15 16 17 18 19 20 21 22 23 24 25 26 27 28 29 30 31 32 33 34
000
FTUS43 KFSD 251603 AAA
TAFSUX
TAF AMD
KSUX 251603Z 2516/2612 06014KT P6SM OVC015
     FM251700 06014G21KT P6SM SCT017 BKN040
     FM252100 07014KT P6SM BKN040
     FM260100 10005KT P6SM SCT040=

USA.gov is the U.S. government's official web portal to all federal, state and local government web resources and services.